Radiation Dose at Monitoring Post of Fukushima Daini Nuclear Power Station
Date,Time,MP-1(microSv/h),MP-2(microSv/h),MP-3(microSv/h),MP-4(microSv/h),MP-5(microSv/h),MP-6(microSv/h),MP-7(microSv/h),Wind Direction,Wind Velocity(m/s),Rain
2014/10/29,00:00,0.620,0.430,0.656,0.594,0.591,0.272,0.238,west-northwest,4.2,No
2014/10/29,00:10,0.620,0.431,0.655,0.595,0.590,0.273,0.239,west,5.8,No
2014/10/29,00:20,0.619,0.431,0.655,0.593,0.592,0.272,0.239,west,3.4,No
2014/10/29,00:30,0.620,0.430,0.656,0.596,0.591,0.273,0.240,west,1.8,No
2014/10/29,00:40,0.619,0.428,0.656,0.592,0.591,0.273,0.238,west,1.3,No
2014/10/29,00:50,0.621,0.429,0.655,0.593,0.592,0.273,0.240,west-southwest,1.9,No
2014/10/29,01:00,0.621,0.430,0.656,0.593,0.592,0.272,0.239,southwest,3.1,No
2014/10/29,01:10,0.620,0.430,0.657,0.594,0.592,0.273,0.238,south,2.5,No
2014/10/29,01:20,0.622,0.430,0.655,0.594,0.590,0.273,0.239,southwest,2.8,No
2014/10/29,01:30,0.618,0.430,0.657,0.595,0.591,0.271,0.240,southwest,3.6,No
2014/10/29,01:40,0.620,0.430,0.657,0.594,0.590,0.273,0.239,southwest,2.7,No
2014/10/29,01:50,0.621,0.431,0.656,0.594,0.591,0.272,0.239,west-southwest,2.6,No
2014/10/29,02:00,0.620,0.429,0.654,0.596,0.590,0.272,0.239,west-southwest,2.1,No
2014/10/29,02:10,0.620,0.429,0.657,0.594,0.591,0.272,0.239,west-southwest,2.0,No
2014/10/29,02:20,0.619,0.429,0.655,0.596,0.591,0.272,0.238,west,2.4,No
2014/10/29,02:30,0.621,0.431,0.656,0.593,0.592,0.273,0.240,west,2.4,No
2014/10/29,02:40,0.621,0.431,0.658,0.594,0.589,0.272,0.240,west-southwest,1.8,No
2014/10/29,02:50,0.619,0.430,0.656,0.594,0.592,0.273,0.240,west-southwest,2.4,No
2014/10/29,03:00,0.620,0.431,0.658,0.596,0.592,0.273,0.239,west-southwest,2.3,No
2014/10/29,03:10,0.621,0.430,0.658,0.595,0.591,0.272,0.239,south,3.3,No
2014/10/29,03:20,0.620,0.430,0.657,0.595,0.592,0.273,0.238,south-southwest,4.0,No
2014/10/29,03:30,0.621,0.430,0.657,0.594,0.592,0.273,0.238,south-southwest,5.1,No
2014/10/29,03:40,0.619,0.429,0.657,0.595,0.590,0.274,0.238,southwest,5.3,No
2014/10/29,03:50,0.621,0.430,0.657,0.594,0.590,0.274,0.239,south-southwest,3.3,No
2014/10/29,04:00,0.621,0.429,0.657,0.595,0.592,0.273,0.239,south-southwest,3.6,No
2014/10/29,04:10,0.619,0.429,0.657,0.593,0.592,0.273,0.240,southwest,2.8,No
2014/10/29,04:20,0.620,0.429,0.657,0.594,0.592,0.273,0.239,south-southwest,5.3,No
2014/10/29,04:30,0.623,0.431,0.657,0.595,0.591,0.272,0.240,south-southwest,5.0,No
2014/10/29,04:40,0.622,0.429,0.657,0.594,0.590,0.273,0.239,west-southwest,2.4,No
2014/10/29,04:50,0.620,0.430,0.657,0.595,0.591,0.273,0.239,southwest,3.9,No
2014/10/29,05:00,0.620,0.431,0.656,0.596,0.591,0.274,0.238,south-southwest,3.3,No
2014/10/29,05:10,0.619,0.430,0.657,0.593,0.591,0.273,0.240,south-southwest,3.4,No
2014/10/29,05:20,0.620,0.430,0.657,0.595,0.590,0.273,0.240,southwest,3.8,No
2014/10/29,05:30,0.621,0.429,0.657,0.596,0.592,0.272,0.238,south-southwest,5.2,No
2014/10/29,05:40,0.622,0.429,0.657,0.594,0.592,0.273,0.240,south-southwest,5.1,No
2014/10/29,05:50,0.621,0.429,0.657,0.596,0.592,0.273,0.239,southwest,4.7,No
2014/10/29,06:00,0.620,0.430,0.659,0.596,0.591,0.273,0.239,west-southwest,4.7,No
2014/10/29,06:10,0.621,0.430,0.657,0.595,0.590,0.272,0.239,west-southwest,4.3,No
2014/10/29,06:20,0.621,0.431,0.657,0.594,0.591,0.273,0.239,west-southwest,4.0,No
2014/10/29,06:30,0.621,0.431,0.657,0.595,0.590,0.271,0.239,west-southwest,5.5,No
2014/10/29,06:40,0.621,0.429,0.657,0.597,0.591,0.272,0.239,west-southwest,4.5,No
2014/10/29,06:50,0.622,0.429,0.658,0.596,0.590,0.273,0.239,west-southwest,4.1,No
2014/10/29,07:00,0.619,0.431,0.657,0.597,0.592,0.272,0.238,southwest,3.5,No
2014/10/29,07:10,0.620,0.431,0.657,0.595,0.591,0.273,0.238,west-southwest,2.5,No
2014/10/29,07:20,0.622,0.430,0.656,0.596,0.591,0.274,0.238,west-southwest,1.7,No
2014/10/29,07:30,0.621,0.431,0.658,0.595,0.592,0.272,0.239,west-southwest,0.7,No
2014/10/29,07:40,0.621,0.431,0.657,0.596,0.592,0.272,0.239,southwest,2.2,No
2014/10/29,07:50,0.620,0.431,0.657,0.597,0.592,0.272,0.238,southwest,0.8,No
2014/10/29,08:00,0.620,0.431,0.659,0.596,0.592,0.272,0.240,-,CALM,No
2014/10/29,08:10,0.619,0.431,0.658,0.596,0.591,0.273,0.237,south,1.4,No
2014/10/29,08:20,0.619,0.430,0.658,0.595,0.593,0.274,0.238,west,1.3,No
2014/10/29,08:30,0.621,0.431,0.659,0.595,0.593,0.271,0.240,northwest,2.7,No
2014/10/29,08:40,0.621,0.430,0.658,0.598,0.592,0.273,0.237,west,2.8,No
2014/10/29,08:50,0.622,0.430,0.656,0.597,0.592,0.272,0.240,west-southwest,3.0,No
2014/10/29,09:00,0.621,0.431,0.659,0.598,0.594,0.273,0.237,west-northwest,4.0,No
2014/10/29,09:10,0.621,0.431,0.657,0.598,0.593,0.273,0.237,west-northwest,5.2,No
2014/10/29,09:20,0.622,0.431,0.658,0.599,0.592,0.273,0.238,west,5.6,No
2014/10/29,09:30,0.624,0.431,0.659,0.599,0.592,0.274,0.238,west,6.7,No
2014/10/29,09:40,0.623,0.432,0.658,0.598,0.592,0.272,0.238,west-northwest,8.4,No
2014/10/29,09:50,0.623,0.432,0.658,0.601,0.593,0.274,0.239,west-northwest,6.9,No
2014/10/29,10:00,0.624,0.432,0.659,0.601,0.594,0.272,0.237,west-northwest,6.1,No
2014/10/29,10:10,0.623,0.432,0.660,0.602,0.592,0.273,0.238,west-northwest,6.7,No
2014/10/29,10:20,0.623,0.433,0.659,0.603,0.593,0.273,0.240,northwest,6.7,No
2014/10/29,10:30,0.626,0.433,0.660,0.604,0.595,0.272,0.237,northwest,6.4,No
2014/10/29,10:40,0.625,0.435,0.659,0.606,0.591,0.271,0.238,west-northwest,8.6,No
2014/10/29,10:50,0.625,0.435,0.659,0.607,0.595,0.271,0.239,northwest,4.7,No
2014/10/29,11:00,0.626,0.434,0.661,0.610,0.595,0.271,0.238,northwest,5.2,No
2014/10/29,11:10,0.625,0.435,0.658,0.609,0.596,0.272,0.237,north-northwest,1.8,No
2014/10/29,11:20,0.626,0.435,0.658,0.611,0.597,0.273,0.240,west-northwest,3.8,No
2014/10/29,11:30,0.630,0.436,0.660,0.610,0.596,0.273,0.239,north-northwest,3.1,No
2014/10/29,11:40,0.628,0.436,0.659,0.612,0.598,0.273,0.238,east-northeast,0.5,No
2014/10/29,11:50,0.627,0.437,0.660,0.610,0.597,0.272,0.239,west-northwest,7.1,No
2014/10/29,12:00,0.630,0.435,0.661,0.613,0.598,0.272,0.239,northwest,4.6,No
2014/10/29,12:10,0.630,0.436,0.662,0.613,0.598,0.274,0.238,west,7.1,No
2014/10/29,12:20,0.630,0.437,0.663,0.611,0.597,0.275,0.239,west-northwest,8.1,No
2014/10/29,12:30,0.629,0.438,0.664,0.609,0.601,0.273,0.239,northwest,10.1,No
2014/10/29,12:40,0.629,0.437,0.664,0.612,0.600,0.273,0.238,west-northwest,7.8,No
2014/10/29,12:50,0.629,0.437,0.664,0.614,0.598,0.273,0.239,west-northwest,7.8,No
2014/10/29,13:00,0.628,0.438,0.664,0.613,0.597,0.273,0.239,west-northwest,8.9,No
2014/10/29,13:10,0.629,0.437,0.665,0.614,0.599,0.274,0.239,west-northwest,8.3,No
2014/10/29,13:20,0.629,0.437,0.666,0.614,0.596,0.273,0.238,west-northwest,7.4,No
2014/10/29,13:30,0.628,0.437,0.667,0.613,0.596,0.274,0.240,west-northwest,5.7,No
2014/10/29,13:40,0.628,0.438,0.665,0.612,0.598,0.274,0.240,west-northwest,8.2,No
2014/10/29,13:50,0.629,0.437,0.667,0.613,0.597,0.273,0.239,west,7.2,No
2014/10/29,14:00,0.626,0.438,0.667,0.613,0.597,0.273,0.241,west-northwest,7.7,No
2014/10/29,14:10,0.625,0.437,0.666,0.613,0.595,0.274,0.240,west-northwest,5.3,No
2014/10/29,14:20,0.625,0.436,0.663,0.614,0.594,0.273,0.240,west,4.4,No
2014/10/29,14:30,0.626,0.436,0.664,0.611,0.595,0.272,0.240,west-northwest,6.1,No
2014/10/29,14:40,0.626,0.437,0.665,0.611,0.596,0.273,0.241,west-northwest,6.7,No
2014/10/29,14:50,0.625,0.437,0.663,0.607,0.596,0.273,0.240,west,8.6,No
2014/10/29,15:00,0.622,0.436,0.662,0.608,0.594,0.273,0.241,west-northwest,7.9,No
2014/10/29,15:10,0.623,0.436,0.663,0.608,0.595,0.274,0.239,west-northwest,4.7,No
2014/10/29,15:20,0.623,0.437,0.659,0.605,0.593,0.273,0.241,west,4.2,No
2014/10/29,15:30,0.623,0.434,0.662,0.604,0.595,0.273,0.240,west,7.8,No
2014/10/29,15:40,0.624,0.434,0.660,0.607,0.593,0.274,0.241,west,7.0,No
2014/10/29,15:50,0.623,0.434,0.660,0.603,0.594,0.272,0.240,west-northwest,6.4,No
2014/10/29,16:00,0.622,0.434,0.657,0.602,0.594,0.273,0.240,west,7.3,No
2014/10/29,16:10,0.623,0.434,0.657,0.599,0.594,0.274,0.241,west-northwest,8.7,No
2014/10/29,16:20,0.621,0.433,0.656,0.599,0.593,0.274,0.241,west-northwest,7.0,No
2014/10/29,16:30,0.621,0.433,0.657,0.598,0.590,0.274,0.241,west-northwest,5.1,No
2014/10/29,16:40,0.621,0.434,0.659,0.598,0.590,0.275,0.240,west,5.2,No
2014/10/29,16:50,0.619,0.433,0.658,0.594,0.589,0.274,0.241,west-northwest,7.2,No
2014/10/29,17:00,0.622,0.432,0.657,0.596,0.591,0.274,0.240,west-northwest,7.0,No
2014/10/29,17:10,0.621,0.432,0.659,0.594,0.590,0.274,0.241,west-northwest,8.7,No
2014/10/29,17:20,0.623,0.430,0.657,0.595,0.590,0.274,0.241,west,7.0,No
2014/10/29,17:30,0.622,0.431,0.658,0.597,0.589,0.274,0.240,west-northwest,6.1,No
2014/10/29,17:40,0.621,0.430,0.658,0.597,0.591,0.273,0.240,west-northwest,7.4,No
2014/10/29,17:50,0.622,0.431,0.657,0.596,0.591,0.275,0.240,west-northwest,6.4,No
2014/10/29,18:00,0.622,0.432,0.657,0.595,0.590,0.275,0.240,west-northwest,5.9,No
2014/10/29,18:10,0.624,0.432,0.659,0.596,0.591,0.276,0.239,west-northwest,4.3,No
2014/10/29,18:20,0.623,0.433,0.659,0.596,0.590,0.273,0.240,west-northwest,4.4,No
2014/10/29,18:30,0.621,0.431,0.657,0.596,0.591,0.273,0.241,west-northwest,4.2,No
2014/10/29,18:40,0.622,0.430,0.658,0.595,0.590,0.275,0.240,west-northwest,3.1,No
2014/10/29,18:50,0.621,0.430,0.658,0.595,0.591,0.273,0.240,northwest,3.9,No
2014/10/29,19:00,0.621,0.430,0.659,0.597,0.592,0.273,0.240,north-northwest,3.8,No
2014/10/29,19:10,0.622,0.432,0.660,0.595,0.591,0.274,0.241,northwest,3.3,No
2014/10/29,19:20,0.622,0.430,0.659,0.595,0.590,0.273,0.240,west-northwest,5.4,No
2014/10/29,19:30,0.624,0.432,0.660,0.596,0.591,0.274,0.240,northwest,4.7,No
2014/10/29,19:40,0.624,0.430,0.658,0.597,0.591,0.274,0.241,northwest,3.6,No
2014/10/29,19:50,0.621,0.431,0.658,0.596,0.591,0.274,0.240,north-northwest,2.8,No
2014/10/29,20:00,0.623,0.432,0.659,0.596,0.591,0.274,0.241,north-northwest,2.7,No
2014/10/29,20:10,0.622,0.430,0.658,0.597,0.591,0.275,0.239,northwest,3.2,No
2014/10/29,20:20,0.622,0.432,0.660,0.599,0.590,0.274,0.240,north-northwest,2.5,No
2014/10/29,20:30,0.623,0.431,0.658,0.596,0.590,0.276,0.241,north-northwest,2.3,No
2014/10/29,20:40,0.622,0.430,0.658,0.596,0.592,0.274,0.241,north-northwest,2.8,No
2014/10/29,20:50,0.623,0.431,0.659,0.595,0.591,0.274,0.240,northwest,2.6,No
2014/10/29,21:00,0.622,0.432,0.658,0.596,0.591,0.274,0.242,northwest,3.3,No
2014/10/29,21:10,0.622,0.431,0.658,0.597,0.590,0.273,0.240,northwest,4.4,No
2014/10/29,21:20,0.622,0.431,0.656,0.595,0.592,0.275,0.241,northwest,5.1,No
2014/10/29,21:30,0.623,0.430,0.659,0.596,0.592,0.274,0.241,west-northwest,6.7,No
2014/10/29,21:40,0.622,0.432,0.659,0.596,0.591,0.273,0.242,west-northwest,7.0,No
2014/10/29,21:50,0.624,0.433,0.660,0.597,0.593,0.275,0.242,west,6.1,No
2014/10/29,22:00,0.621,0.432,0.659,0.597,0.592,0.274,0.241,west-northwest,5.8,No
2014/10/29,22:10,0.624,0.432,0.659,0.595,0.592,0.273,0.241,west,5.7,No
2014/10/29,22:20,0.623,0.431,0.658,0.597,0.591,0.274,0.241,west,5.3,No
2014/10/29,22:30,0.624,0.431,0.659,0.597,0.591,0.274,0.241,west,5.4,No
2014/10/29,22:40,0.623,0.432,0.660,0.598,0.591,0.274,0.241,west,5.0,No
2014/10/29,22:50,0.623,0.431,0.660,0.596,0.592,0.274,0.242,west,4.7,No
2014/10/29,23:00,0.622,0.431,0.659,0.597,0.591,0.274,0.241,west,4.8,No
2014/10/29,23:10,0.622,0.433,0.658,0.597,0.590,0.274,0.240,west,2.8,No
2014/10/29,23:20,0.624,0.432,0.659,0.598,0.591,0.274,0.242,west,2.8,No
2014/10/29,23:30,0.623,0.433,0.661,0.597,0.593,0.274,0.240,west,2.6,No
2014/10/29,23:40,0.624,0.432,0.660,0.596,0.591,0.274,0.241,west-northwest,3.4,No
2014/10/29,23:50,0.622,0.430,0.659,0.595,0.591,0.275,0.241,northwest,2.2,No
